This demonstration page uses our WeatherBlox Daily Observations layout. Learn more.

Left ArrowRight Arrow

39.92423, -83.80882

Hourly Observations for March 18, 2022

Temp ( °F °C ) Dew Point ( °F °C ) Humidity (%) Winds ( mph kmh ) Pressure ( in mb ) Visibility ( mi km ) Precip ( " mm )
12:56 am 00:56 Clear 46 7.8 45 7.2 96 96 SSE 5 7 29.96 1015 10 16 0.00 0.00
1:56 am 01:56 Mostly Clear 45 7.2 44 6.7 97 97 SSE 5 7 29.96 1015 10 16 0.00 0.00
2:56 am 02:56 Clear 43 6.1 43 6.1 100 100 SSE 3 6 29.95 1014 10 16 0.00 0.00
3:56 am 03:56 Clear 42 5.6 42 5.6 100 100 SSE 5 7 29.92 1013 10 16 0.00 0.00
4:56 am 04:56 Partly Cloudy 42 5.6 42 5.6 100 100 SSE 6 9 29.93 1013 10 16 0.00 0.00
5:56 am 05:56 Partly Cloudy 41 5 41 5 100 100 SSE 6 9 29.93 1014 10 16 0.00 0.00
6:56 am 06:56 Cloudy 44 6.7 44 6.7 100 100 SSE 5 7 29.94 1014 10 16 0.00 0.00
7:56 am 07:56 Cloudy 47 8.3 47 8.3 100 100 ESE 5 7 29.94 1014 10 16 0.00 0.00
8:56 am 08:56 Cloudy 52 11.1 51 10.6 97 97 Calm 29.92 1013 10 16 0.00 0.00
9:56 am 09:56 Mostly Cloudy 57 13.9 50 10 78 78 SE 6 9 29.91 1013 10 16 0.00 0.00
10:56 am 10:56 Sunny 63 17.2 50 10 63 63 SSE 9 15 29.90 1013 10 16 0.00 0.00
11:56 am 11:56 Mostly Cloudy 66 18.9 51 10.6 59 59 S 10 17 29.89 1012 10 16 0.00 0.00
12:56 pm 12:56 Sunny 67 19.4 51 10.6 57 57 SSW 15 24 29.85 1011 10 16 0.00 0.00
1:56 pm 13:56 Sunny 67 19.4 50 10 55 55 S 15 24 29.81 1009 10 16 0.00 0.00
2:56 pm 14:56 Mostly Sunny 67 19.4 50 10 55 55 S 9 15 29.78 1008 10 16 0.00 0.00
3:56 pm 15:56 Mostly Cloudy 66 18.9 50 10 56 56 S 14 22 29.73 1007 10 16 0.00 0.00
4:56 pm 16:56 Cloudy with Light Rain 62 16.7 54 12.2 75 75 S 7 11 29.73 1007 10 16 0.00 0.00
5:56 pm 17:56 Cloudy with Light Rain 57 13.9 57 13.9 100 100 SSE 6 9 29.75 1007 9 14 0.00 0.00
6:56 pm 18:56 Cloudy 55 13 N/A N/A E 6 9 29.72 1007 10 16 0.00 0.00
7:56 pm 19:56 Cloudy with Light Rain 55 13 N/A N/A SE 7 11 29.72 1007 10 16 0.00 0.00
8:56 pm 20:56 Cloudy 55 13 N/A N/A SE 7 11 29.70 1006 10 16 0.00 0.00
9:56 pm 21:56 Cloudy 55 12.8 55 12.8 100 100 SSE 9 15 29.68 1005 10 16 0.00 0.00
10:56 pm 22:56 Partly Cloudy 56 13.3 56 13.3 100 100 SSE 10 17 29.66 1004 10 16 0.00 0.00
11:56 pm 23:56 Mostly Cloudy 56 13.3 55 12.8 97 97 SSE 12 19 29.64 1004 10 16 0.00 0.00

Powered by AerisWeather